Weather History for McComb, MS

Change the Weather History Date:

Wednesday, April 3, 2013

  Actual Average Record
Temperature  
Mean Temperature 56 °F -  
Max Temperature 63 °F 75 °F 87 °F (1981)
Min Temperature 48 °F 52 °F 30 °F (1987)
Degree Days  
Heating Degree Days 10    
Growing Degree Days 6 (Base 50)    
Moisture  
Dew Point 51 °F    
Average Humidity 93    
Maximum Humidity 100    
Minimum Humidity 72    
Precipitation  
Precipitation 1.22 in - - ()
Sea Level Pressure  
Sea Level Pressure 29.97 in    
Wind  
Wind Speed 6 mph (NE)    
Max Wind Speed 15 mph    
Max Gust Speed 25 mph    
Visibility 6 miles    
Events Rain , Thunderstorm    
Averages and records for this station are not official NWS values.
T = Trace of Precipitation, MM = Missing Value Source: NWS Daily Summary

Daily Weather History Graph

Daily Weather History Graph

Search for Another Location

Airport:

Trip Planner

Search our weather history database for the weather conditions in past years. The results will help you decide how hot, cold, wet, or windy it might be!

Date:

Astronomy

Apr. 03, 2013 Rise Set
Actual Time 6:47 AM CDT 7:22 PM CDT
Civil Twilight 6:23 AM CDT 7:47 PM CDT
Nautical Twilight 5:54 AM CDT 8:15 PM CDT
Astronomical Twilight 5:25 AM CDT 8:45 PM CDT
Moon 2:04 AM CDT (4/3) 12:58 PM CDT (4/3)
Length of Visible Light 13h 23m
Length of Day
12h 34m
Last Quarter, 44% of the Moon is Illuminated
Apr 3
Last Quarter
Apr 10
New
Apr 18
First Quarter
Apr 25
Full
May 2
Last Quarter

Hourly Weather History & Observations

Time (CDT) Temp. Dew Point Humidity Pressure Visibility Wind Dir Wind Speed Gust Speed Precip Events Conditions
12:53 AM 62.1 °F 55.0 °F 78% 29.96 in 10.0 mi Calm Calm - N/A   Clear
1:53 AM 63.0 °F 55.0 °F 75% 29.95 in 10.0 mi ENE 5.8 mph - N/A   Overcast
2:53 AM 62.1 °F 53.1 °F 72% 29.95 in 10.0 mi East 4.6 mph - N/A   Overcast
3:53 AM 60.1 °F 54.0 °F 80% 29.95 in 9.0 mi NE 3.5 mph - 0.01 in Rain Light Rain
4:50 AM 57.2 °F 53.6 °F 88% 29.98 in 5.0 mi NE 6.9 mph - 0.20 in Rain Rain
4:53 AM 55.9 °F 54.0 °F 93% 29.97 in 5.0 mi NE 5.8 mph - 0.21 in Rain Rain
5:53 AM 55.0 °F 53.1 °F 93% 29.97 in 5.0 mi NE 6.9 mph - 0.20 in Rain Rain
6:09 AM 53.6 °F 53.6 °F 100% 29.99 in 5.0 mi NE 6.9 mph - 0.04 in Rain Rain
6:31 AM 53.6 °F 53.6 °F 100% 29.99 in 4.0 mi NE 6.9 mph - 0.11 in Rain Rain
6:34 AM 53.6 °F 53.6 °F 100% 29.99 in 4.0 mi NE 5.8 mph - 0.12 in Rain Rain
6:53 AM 54.0 °F 52.0 °F 93% 29.98 in 4.0 mi Variable 6.9 mph 16.1 mph 0.17 in Rain Rain
7:07 AM 53.6 °F 51.8 °F 94% 29.97 in 5.0 mi NE 10.4 mph 19.6 mph 0.04 in Rain Rain
7:16 AM 53.6 °F 53.6 °F 100% 29.98 in 5.0 mi ENE 11.5 mph 16.1 mph 0.05 in Rain Rain
7:30 AM 53.6 °F 53.6 °F 100% 29.99 in 5.0 mi Variable 5.8 mph - 0.08 in Rain , Thunderstorm Thunderstorms and Rain
7:45 AM 53.6 °F 51.8 °F 94% 29.99 in 5.0 mi NE 9.2 mph - 0.12 in Rain Rain
7:53 AM 53.1 °F 52.0 °F 96% 29.98 in 5.0 mi ENE 8.1 mph 16.1 mph 0.14 in Rain Rain
8:17 AM 51.8 °F 51.8 °F 100% 30.02 in 1.8 mi Calm Calm - 0.12 in Rain Heavy Rain
8:42 AM 51.8 °F 51.8 °F 100% 30.00 in 2.0 mi ENE 4.6 mph - 0.38 in Rain Rain
8:49 AM 51.8 °F 51.8 °F 100% 29.99 in 2.5 mi NE 9.2 mph - 0.40 in Rain Rain
8:53 AM 52.0 °F 51.1 °F 97% 29.97 in 2.5 mi NE 9.2 mph - 0.42 in Rain Heavy Rain
9:06 AM 51.8 °F 51.8 °F 100% 29.97 in 4.0 mi ENE 5.8 mph - 0.02 in Rain Rain
9:53 AM 52.0 °F 50.0 °F 93% 29.90 in 7.0 mi ENE 15.0 mph 25.3 mph 0.05 in Rain Light Rain
10:53 AM 53.1 °F 51.1 °F 93% 29.94 in 10.0 mi ENE 8.1 mph - 0.00 in   Overcast
11:53 AM 54.0 °F 52.0 °F 93% 29.95 in 10.0 mi ENE 8.1 mph 17.3 mph N/A   Overcast
12:53 PM 55.9 °F 52.0 °F 87% 29.95 in 10.0 mi NNE 6.9 mph - N/A   Overcast
1:53 PM 55.0 °F 52.0 °F 89% 29.94 in 10.0 mi NE 6.9 mph - N/A   Overcast
2:02 PM 55.4 °F 51.8 °F 88% 29.94 in 10.0 mi Variable 5.8 mph - N/A   Overcast
2:53 PM 54.0 °F 51.1 °F 90% 29.93 in 10.0 mi North 11.5 mph - N/A   Overcast
3:53 PM 53.1 °F 50.0 °F 89% 29.93 in 4.0 mi NNE 11.5 mph 18.4 mph N/A   Overcast
4:53 PM 52.0 °F 50.0 °F 93% 29.93 in 4.0 mi NNE 9.2 mph 17.3 mph N/A   Overcast
5:38 PM 51.8 °F 50.0 °F 94% 29.93 in 2.5 mi NNE 5.8 mph - N/A   Overcast
5:53 PM 51.1 °F 50.0 °F 96% 29.93 in 2.5 mi NNE 9.2 mph 19.6 mph N/A   Overcast
6:20 PM 50.0 °F 48.2 °F 94% 29.94 in 2.5 mi NNE 10.4 mph 17.3 mph N/A   Overcast
6:27 PM 50.0 °F 48.2 °F 94% 29.94 in 4.0 mi NE 8.1 mph 18.4 mph N/A   Overcast
6:53 PM 50.0 °F 48.0 °F 93% 29.95 in 6.0 mi Variable 5.8 mph - N/A   Overcast
7:53 PM 48.9 °F 48.0 °F 97% 29.98 in 3.0 mi Variable 6.9 mph - 0.01 in Rain Light Rain
8:53 PM 48.9 °F 46.9 °F 93% 29.99 in 7.0 mi Variable 4.6 mph - 0.01 in   Overcast
9:53 PM 48.9 °F 46.9 °F 93% 30.03 in 5.0 mi NNE 5.8 mph - N/A   Overcast
10:53 PM 48.0 °F 46.9 °F 96% 30.02 in 5.0 mi NE 4.6 mph - N/A   Overcast
11:53 PM 48.9 °F 46.9 °F 93% 30.02 in 10.0 mi NNE 4.6 mph - N/A   Overcast